This demonstration page uses our WeatherBlox Daily Observations layout. Learn more.

Left ArrowRight Arrow

Hourly Observations for December 31, 2021

Temp ( °F °C ) Dew Point ( °F °C ) Humidity (%) Winds ( mph kmh ) Pressure ( in mb ) Visibility ( mi km ) Precip ( " mm )
12:56 am 00:56 Clear 20 -6.7 16 -8.9 85 85 NE 10 17 29.55 1001 10 16 0.00 0.00
1:56 am 01:56 Clear 21 -6.1 17 -8.3 85 85 E 5 7 29.54 1000 10 16 0.00 0.00
2:56 am 02:56 Clear 22 -5.6 18 -7.8 85 85 NE 3 6 29.53 1000 10 16 0.00 0.00
3:56 am 03:56 Clear 18 -7.8 14 -10 84 84 NNE 5 7 29.52 1000 10 16 0.00 0.00
4:56 am 04:56 Clear 15 -9.4 12 -11.1 88 88 NW 9 15 29.55 1001 10 16 0.00 0.00
5:56 am 05:56 Clear 19 -7.2 16 -8.9 88 88 N 14 22 29.57 1001 10 16 0.00 0.00
6:56 am 06:56 Clear 17 -8.3 14 -10 88 88 N 10 17 29.60 1002 10 16 0.00 0.00
7:56 am 07:56 Clear 16 -8.9 12 -11.1 84 84 N 15 24 29.59 1002 10 16 0.00 0.00
8:56 am 08:56 Sunny 15 -9.4 11 -11.7 84 84 N 21 33 29.67 1005 10 16 0.00 0.00
9:56 am 09:56 Sunny 17 -8.3 12 -11.1 80 80 N 24 39 29.69 1005 10 16 0.00 0.00
10:56 am 10:56 Sunny 19 -7.2 12 -11.1 74 74 N 24 39 29.74 1007 10 16 0.00 0.00
11:40 am 11:40 Mostly Cloudy 19 -7 12 -11 73 73 N 24 39 29.82 1010 10 16 0.00 0.00
11:56 am 11:56 Cloudy 19 -7.2 12 -11.1 74 74 N 26 43 29.75 1007 10 16 0.00 0.00
12:56 pm 12:56 Cloudy 20 -6.7 13 -10.6 74 74 N 25 41 29.76 1008 10 16 0.00 0.00
1:56 pm 13:56 Cloudy 21 -6.1 13 -10.6 71 71 N 24 39 29.75 1008 10 16 0.00 0.00
2:56 pm 14:56 Cloudy 22 -5.6 14 -10 71 71 NNE 26 43 29.77 1008 10 16 0.00 0.00
3:56 pm 15:56 Cloudy 21 -6.1 12 -11.1 68 68 NNE 22 35 29.80 1009 10 16 0.00 0.00
4:56 pm 16:56 Cloudy 17 -8.3 8 -13.3 68 68 N 22 35 29.86 1011 10 16 0.00 0.00
5:56 pm 17:56 Windy with Snow Likely 12 -11.1 5 -15 73 73 NNE 25 41 29.91 1013 9 14 0.00 0.00
6:56 pm 18:56 Windy with Snow Likely 10 -12.2 5 -15 80 80 NNE 20 31 29.95 1014 9 14 0.00 0.00
7:06 pm 19:06 Cloudy with Light Snow 10 -12 5 -15 79 79 N 18 30 30.06 1018 9 14 0.00 0.00
7:56 pm 19:56 Windy with Snow Likely 9 -12.8 6 -14.4 88 88 N 25 41 29.99 1016 4 6 0.00 0.00
8:56 pm 20:56 Windy with Snow Likely 7 -13.9 4 -15.6 87 87 N 22 35 30.03 1017 4 6 0.00 0.00
9:56 pm 21:56 Windy with Snow Likely 6 -14.4 3 -16.1 87 87 N 30 48 29.99 1016 7 11 0.00 0.00
10:56 pm 22:56 Windy with Snow Likely 5 -15 1 -17.2 83 83 NNE 29 46 30.02 1017 9 14 0.00 0.00
11:21 pm 23:21 Windy with Snow Likely 3 -16 0 -18 85 85 N 29 46 30.16 1021 9 14 0.00 0.00
11:56 pm 23:56 Windy with Snow Likely 4 -15.6 -2 -18.9 76 76 N 26 43 30.02 1017 9 14 0.00 0.00

Powered by AerisWeather